COSMOS 2251 DEB, 34761

Orbit data source: Space-Track

COSMOS 2251 DEB, 34761 is space debris in LEO originally from a launch on Wed, 16 Jun 1993 UTC launched from the Plesetsk Missile And Space Complex (PKMTR). The debris from Iridium 33, an American commercial communications satellite, has been tracked extensively since its accidental collision with the defunct Russian satellite Cosmos 2251 in 2009. This event, occurring at high speed in low Earth orbit (LEO), generated thousands of pieces of space debris, significantly increasing the risk of further collisions. The Iridium 33 debris cloud has impacted space traffic management and orbital debris mitigation strategies, making it a subject of ongoing study in space situational awareness.

Loading next visibility...
Identifier
34761, 1993-036AAF
Orbit
LEO
Country
Flag of CISCIS
Related business
Manufacturer
Unknown
Mission
Spacecraft
Bus & Motor
Unknown
Mass
Unknown
Launch date (UTC)
1993-06-16 (33 years ago)
Launch vehicle
Unknown
Launch site
Plesetsk Missile And Space Complex (PKMTR)
Object type
Payload
Rocket body
Debris
Shape & HBR
Unknown shape, 0.1 m
Radar Cross Section
Small (<0.1 m²)

Expand to show TLE details & history
Last TLE update: 19 hours ago

TLE from 19 hours ago
0 COSMOS 2251 DEB
1 34761U 93036AAF 25352.43307561  .00001547  00000-0  51543-3 0  9996
2 34761  74.0291 352.2990 0036705  24.7120 335.5781 14.38069175877315
Epoch: 2025-12-18T10:23Z
TLE epoch observation values (Epoch: 2025-12-18T10:23:37.732Z)
Latitude
-0.00011°
Longitude
109.1031°
Altitude
743.638 km
Speed
7.496 km/s
True Right ascension
23h 29m 11s
True Declination
0° 00' 00"
Sunlit
Object was in daylight at epoch
Visualization orbit readout
Latitude
Unknown
Longitude
Unknown
Altitude
Unknown
Speed
Unknown
Apparent Right ascension
Unknown
Apparent Declination
Unknown
Sunlit
N/A
Visualization observer readout
Local Sidereal Time
04:38:21
Azimuth
Unknown
Elevation
Unknown
Doppler factor
Unknown
Orbital elements
Apogee altitude
788.717 km
Perigee altitude
736.298 km
Semi-major axis
7,140.644 km
Eccentricity
0.00367
Inclination
74.0291°
RAAN
352.299°
Arg. of periapsis
24.712°
True anomaly
335.40347°
Mean anomaly
335.5781°
Eccentric anomaly
335.49086°
Mean motion
3.59697 °/min
Orbital period
100.08 mins
BSTAR
0.00051543
Loading maneuver chart data...
Computing Atmospheric mass density...

Documentation

Showing up to 5 results
|